Regional Weather Roundup
Issued by NWS Cleveland, OH

Home | Current Version | Previous Version | Graphics & Text | Print | Product List | Glossary On
Versions: 1 2 3 4 5 6 7 8 9 10 11 12 13 14 15 16 17 18 19 20 21 22 23 24 25 26 27 28 29 30 31 32 33 34 35 36 37 38 39 40 41 42 43 44 45 46 47 48 49 50
000
ASUS41 KCLE 311902
RWRCLE
OHIO REGIONAL WEATHER ROUNDUP
NATIONAL WEATHER SERVICE CLEVELAND, OH
200 PM EST SAT JAN 31 2015

NOTE: "FAIR" INDICATES FEW OR NO CLOUDS BELOW 12,000 FEET WITH NO
SIGNIFICANT WEATHER AND/OR OBSTRUCTIONS TO VISIBILITY.

OHZ001>008-015>018-024>027-034-035-043-044-312000-
   NORTHWEST OHIO

CITY           SKY/WX    TMP DP  RH WIND       PRES   REMARKS
DEFIANCE       SUNNY     35  23  61 SW12      30.22F WCI  27
FINDLAY        SUNNY     33  21  61 SW14      30.23F WCI  23
TOLEDO EXPRESS SUNNY     33  21  61 SW9G18    30.21F WCI  25
TOLEDO EXEC    SUNNY     32  21  64 SW17      30.23F WCI  21
LIMA           FAIR      33  22  63 SW14      30.23F WCI  23
$$

OHZ009>014-019>023-028>033-038-089-312000-
   NORTHEAST OHIO

CITY           SKY/WX    TMP DP  RH WIND       PRES   REMARKS
CLE-HOPKINS    MOSUNNY   28  16  60 SW15G21   30.27F WCI  16
CLE-LAKEFRONT  CLOUDY    29  18  63 MISG      30.25F
CUY CO. ARPT   CLOUDY    28  19  69 SW12      30.25F WCI  18
LORAIN-ELYRIA  SUNNY     28  18  66 SW16      30.24F WCI  16
ASHTABULA      CLOUDY    23  13  65 S9        30.24F WCI  13
AKRON-CANTON   CLOUDY    25  14  63 SW9       30.25F WCI  15
WOOSTER        SUNNY     26  16  65 SW9       30.25F WCI  17
MANSFIELD      SUNNY     29  17  61 SW14      30.23F WCI  18
YOUNGSTOWN     MOSUNNY   24  13  62 SW10      30.23F WCI  14
$$

OHZ042-051>053-060>062-070>072-077>081-312000-
  SOUTHWEST OHIO

CITY           SKY/WX    TMP DP  RH WIND       PRES   REMARKS
CINC-COVINGTON CLOUDY    38  19  46 SW9       30.29F
CINC-LUNKEN    PTSUNNY   37  19  48 S10       30.33F
HAMILTON       PTSUNNY   37  20  50 SW8       30.32F
DAYTON         CLOUDY    36  24  62 SW9       30.27F
WRIGHT-PAT AFB NOT AVBL
DAYTON GENERAL MOSUNNY   36  20  52 SW8       30.28F
WILMINGTON     SUNNY     35  20  54 W13       30.28F WCI  26
$$

OHZ036-037-039>041-045>050-054>059-063>069-073>076-082>088-312000-
  CENTRAL AND SOUTHEAST OHIO

CITY           SKY/WX    TMP DP  RH WIND       PRES   REMARKS
COLUMBUS       PTSUNNY   32  20  61 SW12      30.29F WCI  23
OSU AIRPORT    SUNNY     32  20  61 SW13      30.28F WCI  22
BOLTON FIELD   MOSUNNY   34  23  64 SW15      30.29F WCI  24
RICKENBACK AFB NOT AVBL
NEWARK         SUNNY     30  18  60 SW12      30.28F WCI  20
MARION         SUNNY     30  19  63 SW10      30.26F WCI  21
LANCASTER      SUNNY     32  21  64 SW8       30.30F WCI  25
ZANESVILLE     SUNNY     29  16  58 VRB7      30.29F WCI  22
NEW PHILLY     SUNNY     28  15  58 SW9       30.29F WCI  19
$$


USA.gov is the U.S. government's official web portal to all federal, state and local government web resources and services.